Year,Month,Day,Hour,Minute,Value (Times are PST for temperature in C)
2009,02,09,13,27,5.10
2009,02,09,13,28,5.10
2009,02,09,13,29,5.10
2009,02,09,13,30,5.00
2009,02,09,13,31,4.90
2009,02,09,13,32,4.90
2009,02,09,13,33,4.90
2009,02,09,13,34,4.80
2009,02,09,13,35,4.80
2009,02,09,13,36,4.70
2009,02,09,13,37,4.70
2009,02,09,13,38,4.70
2009,02,09,13,39,4.60
2009,02,09,13,40,4.60
2009,02,09,13,41,4.60
2009,02,09,13,42,4.50
2009,02,09,13,43,4.50
2009,02,09,13,44,4.50
2009,02,09,13,45,4.50
2009,02,09,13,46,4.50
2009,02,09,13,47,4.50
2009,02,09,13,48,4.50
2009,02,09,13,49,4.40
2009,02,09,13,50,4.40
2009,02,09,13,51,4.40
2009,02,09,13,52,4.40
2009,02,09,13,53,4.40
2009,02,09,13,54,4.40
2009,02,09,13,55,4.40
2009,02,09,13,56,4.30
2009,02,09,13,57,4.30
2009,02,09,13,58,4.30
2009,02,09,13,59,4.30
2009,02,09,14,00,4.20
2009,02,09,14,01,4.20
2009,02,09,14,02,4.20
2009,02,09,14,03,4.20
2009,02,09,14,04,4.10
2009,02,09,14,05,4.10
2009,02,09,14,06,4.10
2009,02,09,14,07,4.10
2009,02,09,14,08,4.10
2009,02,09,14,09,4.00
2009,02,09,14,10,4.00
2009,02,09,14,11,3.90
2009,02,09,14,12,3.90
2009,02,09,14,13,3.90
2009,02,09,14,14,3.90
2009,02,09,14,15,3.90
2009,02,09,14,16,3.90
2009,02,09,14,17,3.90
2009,02,09,14,18,3.90
2009,02,09,14,19,4.00
2009,02,09,14,20,4.10
2009,02,09,14,21,4.20
2009,02,09,14,22,4.20
2009,02,09,14,23,4.30
2009,02,09,14,24,4.30
2009,02,09,14,25,4.40
2009,02,09,14,26,4.50
2009,02,09,14,27,4.50
2009,02,09,14,28,4.60
2009,02,09,14,29,4.60
2009,02,09,14,30,4.70
2009,02,09,14,31,4.70
2009,02,09,14,32,4.70
2009,02,09,14,33,4.70
2009,02,09,14,34,4.70
2009,02,09,14,35,4.70
2009,02,09,14,36,4.70
2009,02,09,14,37,4.70
2009,02,09,14,38,4.70
2009,02,09,14,39,4.60
2009,02,09,14,40,4.60
2009,02,09,14,41,4.60
2009,02,09,14,42,4.60
2009,02,09,14,43,4.50
2009,02,09,14,44,4.50
2009,02,09,14,45,4.40
2009,02,09,14,46,4.40
2009,02,09,14,47,4.40
2009,02,09,14,48,4.40
2009,02,09,14,49,4.30
2009,02,09,14,50,4.30
2009,02,09,14,51,4.30
2009,02,09,14,52,4.30
2009,02,09,14,53,4.30
2009,02,09,14,54,4.20
2009,02,09,14,55,4.20
2009,02,09,14,56,4.20
2009,02,09,14,57,4.20
2009,02,09,14,58,4.20
2009,02,09,14,59,4.20
2009,02,09,15,00,4.20
2009,02,09,15,01,4.20
2009,02,09,15,02,4.20
2009,02,09,15,03,4.20
2009,02,09,15,04,4.20
2009,02,09,15,05,4.20
2009,02,09,15,06,4.20
2009,02,09,15,07,4.20
2009,02,09,15,08,4.30
2009,02,09,15,09,4.30
2009,02,09,15,10,4.30
2009,02,09,15,11,4.40
2009,02,09,15,12,4.40
2009,02,09,15,13,4.40
2009,02,09,15,14,4.50
2009,02,09,15,15,4.60
2009,02,09,15,16,4.60
2009,02,09,15,17,4.70
2009,02,09,15,18,4.70
2009,02,09,15,19,4.70
2009,02,09,15,20,4.80
2009,02,09,15,21,4.80
2009,02,09,15,22,4.80
2009,02,09,15,23,4.90
2009,02,09,15,24,4.90
2009,02,09,15,25,4.80
2009,02,09,15,26,4.80
2009,02,09,15,27,4.80
2009,02,09,15,28,4.80
2009,02,09,15,29,4.80
2009,02,09,15,30,4.80
2009,02,09,15,31,4.80
2009,02,09,15,32,4.80
2009,02,09,15,33,4.80
2009,02,09,15,34,4.80
2009,02,09,15,35,4.70
2009,02,09,15,36,4.70
2009,02,09,15,37,4.70
2009,02,09,15,38,4.60
2009,02,09,15,39,4.50
2009,02,09,15,40,4.50
2009,02,09,15,41,4.40
2009,02,09,15,42,4.40
2009,02,09,15,43,4.40
2009,02,09,15,44,4.40
2009,02,09,15,45,4.30
2009,02,09,15,46,4.30
2009,02,09,15,47,4.30
2009,02,09,15,48,4.30
2009,02,09,15,49,4.30
2009,02,09,15,50,4.30
2009,02,09,15,51,4.30
2009,02,09,15,52,4.30
2009,02,09,15,53,4.30
2009,02,09,15,54,4.30
2009,02,09,15,55,4.30
2009,02,09,15,56,4.30
2009,02,09,15,57,4.30
2009,02,09,15,58,4.30
2009,02,09,15,59,4.30
2009,02,09,16,00,4.30
2009,02,09,16,01,4.30
2009,02,09,16,02,4.30
2009,02,09,16,03,4.30
2009,02,09,16,04,4.30
2009,02,09,16,05,4.30
2009,02,09,16,06,4.30
2009,02,09,16,07,4.30
2009,02,09,16,08,4.30
2009,02,09,16,09,4.30
2009,02,09,16,10,4.30
2009,02,09,16,11,4.30
2009,02,09,16,12,4.20
2009,02,09,16,13,4.20
2009,02,09,16,14,4.20
2009,02,09,16,15,4.10
2009,02,09,16,16,4.10
2009,02,09,16,17,4.10
2009,02,09,16,18,4.10
2009,02,09,16,19,4.00
2009,02,09,16,20,4.00
2009,02,09,16,21,4.00
2009,02,09,16,22,4.00
2009,02,09,16,23,3.90
2009,02,09,16,24,3.90
2009,02,09,16,25,3.90
2009,02,09,16,26,3.90
2009,02,09,16,27,3.80
2009,02,09,16,28,3.80
2009,02,09,16,29,3.80
2009,02,09,16,30,3.70
2009,02,09,16,31,3.70
2009,02,09,16,32,3.70
2009,02,09,16,33,3.70
2009,02,09,16,34,3.60
2009,02,09,16,35,3.60
2009,02,09,16,36,3.60
2009,02,09,16,37,3.60
2009,02,09,16,38,3.60
2009,02,09,16,39,3.50
2009,02,09,16,40,3.50
2009,02,09,16,41,3.50
2009,02,09,16,42,3.50
2009,02,09,16,43,3.40
2009,02,09,16,44,3.40
2009,02,09,16,45,3.40
2009,02,09,16,46,3.40
2009,02,09,16,47,3.40
2009,02,09,16,48,3.30
2009,02,09,16,49,3.30
2009,02,09,16,50,3.30
2009,02,09,16,51,3.30
2009,02,09,16,52,3.30
2009,02,09,16,53,3.30
2009,02,09,16,54,3.30
2009,02,09,16,55,3.20
2009,02,09,16,56,3.20
2009,02,09,16,57,3.20
2009,02,09,16,58,3.20
2009,02,09,16,59,3.20
2009,02,09,17,00,3.20
2009,02,09,17,01,3.20
2009,02,09,17,02,3.20
2009,02,09,17,03,3.20
2009,02,09,17,04,3.10
2009,02,09,17,05,3.10
2009,02,09,17,06,3.10
2009,02,09,17,07,3.10
2009,02,09,17,08,3.10
2009,02,09,17,09,3.10
2009,02,09,17,10,3.10
2009,02,09,17,11,3.10
2009,02,09,17,12,3.00
2009,02,09,17,13,3.00
2009,02,09,17,14,3.00
2009,02,09,17,15,3.00
2009,02,09,17,16,2.90
2009,02,09,17,17,2.90
2009,02,09,17,18,2.90
2009,02,09,17,19,2.90
2009,02,09,17,20,2.90
2009,02,09,17,21,2.80
2009,02,09,17,22,2.80
2009,02,09,17,23,2.80
2009,02,09,17,24,2.80
2009,02,09,17,25,2.70
2009,02,09,17,26,2.70
2009,02,09,17,27,2.60
2009,02,09,17,28,2.60
2009,02,09,17,29,2.60
2009,02,09,17,30,2.50
2009,02,09,17,31,2.50
2009,02,09,17,32,2.40
2009,02,09,17,33,2.40
2009,02,09,17,34,2.30
2009,02,09,17,35,2.30
2009,02,09,17,36,2.30
2009,02,09,17,37,2.20
2009,02,09,17,38,2.20
2009,02,09,17,39,2.20
2009,02,09,17,40,2.20
2009,02,09,17,41,2.10
2009,02,09,17,42,2.10
2009,02,09,17,43,2.00
2009,02,09,17,44,2.00
2009,02,09,17,45,1.90
2009,02,09,17,46,1.90
2009,02,09,17,47,1.80
2009,02,09,17,48,1.80
2009,02,09,17,49,1.70
2009,02,09,17,50,1.70
2009,02,09,17,51,1.60
2009,02,09,17,52,1.60
2009,02,09,17,53,1.60
2009,02,09,17,54,1.50
2009,02,09,17,55,1.50
2009,02,09,17,56,1.40
2009,02,09,17,57,1.40
2009,02,09,17,58,1.30
2009,02,09,17,59,1.30
2009,02,09,18,00,1.30
2009,02,09,18,01,1.30
2009,02,09,18,02,1.20
2009,02,09,18,03,1.20
2009,02,09,18,04,1.10
2009,02,09,18,05,1.00
2009,02,09,18,06,1.00
2009,02,09,18,07,0.90
2009,02,09,18,08,0.90
2009,02,09,18,09,0.80
2009,02,09,18,10,0.80
2009,02,09,18,11,0.80
2009,02,09,18,12,0.70
2009,02,09,18,13,0.70
2009,02,09,18,14,0.60
2009,02,09,18,15,0.60
2009,02,09,18,16,0.60
2009,02,09,18,17,0.60
2009,02,09,18,18,0.60
2009,02,09,18,19,0.60
2009,02,09,18,20,0.60
2009,02,09,18,21,0.50
2009,02,09,18,22,0.50
2009,02,09,18,23,0.50
2009,02,09,18,24,0.50
2009,02,09,18,25,0.60
2009,02,09,18,26,0.50
2009,02,09,18,27,0.50
2009,02,09,18,28,0.50
2009,02,09,18,29,0.40
2009,02,09,18,30,0.40
2009,02,09,18,31,0.40
2009,02,09,18,32,0.30
2009,02,09,18,33,0.30
2009,02,09,18,34,0.30
2009,02,09,18,35,0.30
2009,02,09,18,36,0.20
2009,02,09,18,37,0.20
2009,02,09,18,38,0.20
2009,02,09,18,39,0.10
2009,02,09,18,40,0.10
2009,02,09,18,41,0.00
2009,02,09,18,42,0.00
2009,02,09,18,43,-0.10
2009,02,09,18,44,-0.10
2009,02,09,18,45,-0.10
2009,02,09,18,46,-0.10
2009,02,09,18,47,-0.10
2009,02,09,18,48,-0.20
2009,02,09,18,49,-0.20
2009,02,09,18,50,-0.20
2009,02,09,18,51,-0.20
2009,02,09,18,52,-0.20
2009,02,09,18,53,-0.20
2009,02,09,18,54,-0.20
2009,02,09,18,55,-0.20
2009,02,09,18,56,-0.20
2009,02,09,18,57,-0.20
2009,02,09,18,58,-0.20
2009,02,09,18,59,-0.30
2009,02,09,19,00,-0.30
2009,02,09,19,01,-0.30
2009,02,09,19,02,-0.30
2009,02,09,19,03,-0.30
2009,02,09,19,04,-0.30
2009,02,09,19,05,-0.30
2009,02,09,19,06,-0.30
2009,02,09,19,07,-0.30
2009,02,09,19,08,-0.30
2009,02,09,19,09,-0.30
2009,02,09,19,10,-0.30
2009,02,09,19,11,-0.40
2009,02,09,19,12,-0.40
2009,02,09,19,13,-0.40
2009,02,09,19,14,-0.40
2009,02,09,19,15,-0.40
2009,02,09,19,16,-0.40
2009,02,09,19,17,-0.40
2009,02,09,19,18,-0.40
2009,02,09,19,19,-0.40
2009,02,09,19,20,-0.40
2009,02,09,19,21,-0.50
2009,02,09,19,22,-0.50
2009,02,09,19,23,-0.50
2009,02,09,19,24,-0.50
2009,02,09,19,25,-0.50
2009,02,09,19,26,-0.40
2009,02,09,19,27,-0.40
2009,02,09,19,28,-0.40
2009,02,09,19,29,-0.30
2009,02,09,19,30,-0.30
2009,02,09,19,31,-0.20
2009,02,09,19,32,-0.20
2009,02,09,19,33,-0.10
2009,02,09,19,34,0.00
2009,02,09,19,35,0.10
2009,02,09,19,36,0.30
2009,02,09,19,37,0.40
2009,02,09,19,38,0.50
2009,02,09,19,39,0.60
2009,02,09,19,40,0.70
2009,02,09,19,41,0.70
2009,02,09,19,42,0.80
2009,02,09,19,43,0.90
2009,02,09,19,44,0.90
2009,02,09,19,45,0.90
2009,02,09,19,46,1.00
2009,02,09,19,47,1.00
2009,02,09,19,48,1.10
2009,02,09,19,49,1.10
2009,02,09,19,50,1.10
2009,02,09,19,51,1.20
2009,02,09,19,52,1.20
2009,02,09,19,53,1.20
2009,02,09,19,54,1.30
2009,02,09,19,55,1.30
2009,02,09,19,56,1.30
2009,02,09,19,57,1.30
2009,02,09,19,58,1.30
2009,02,09,19,59,1.30
2009,02,09,20,00,1.30
2009,02,09,20,01,1.30
2009,02,09,20,02,1.30
2009,02,09,20,03,1.30
2009,02,09,20,04,1.30
2009,02,09,20,05,1.30
2009,02,09,20,06,1.30
2009,02,09,20,07,1.30
2009,02,09,20,08,1.30
2009,02,09,20,09,1.30
2009,02,09,20,10,1.30
2009,02,09,20,11,1.30
2009,02,09,20,12,1.30
2009,02,09,20,13,1.30
2009,02,09,20,14,1.30
2009,02,09,20,15,1.30
2009,02,09,20,16,1.30
2009,02,09,20,17,1.30
2009,02,09,20,18,1.30
2009,02,09,20,19,1.30
2009,02,09,20,20,1.30
2009,02,09,20,21,1.30
2009,02,09,20,22,1.30
2009,02,09,20,23,1.30
2009,02,09,20,24,1.30
2009,02,09,20,25,1.20
2009,02,09,20,26,1.20
2009,02,09,20,27,1.20
2009,02,09,20,28,1.20
2009,02,09,20,29,1.20
2009,02,09,20,30,1.20
2009,02,09,20,31,1.20
2009,02,09,20,32,1.10
2009,02,09,20,33,1.10
2009,02,09,20,34,1.10
2009,02,09,20,35,1.10
2009,02,09,20,36,1.10
2009,02,09,20,37,1.10
2009,02,09,20,38,1.10
2009,02,09,20,39,1.10
2009,02,09,20,40,1.10
2009,02,09,20,41,1.00
2009,02,09,20,42,1.00
2009,02,09,20,43,0.90
2009,02,09,20,44,0.90
2009,02,09,20,45,0.90
2009,02,09,20,46,0.80
2009,02,09,20,47,0.80
2009,02,09,20,48,0.80
2009,02,09,20,49,0.90
2009,02,09,20,50,0.90
2009,02,09,20,51,0.90
2009,02,09,20,52,0.90
2009,02,09,20,53,1.00
2009,02,09,20,54,1.00
2009,02,09,20,55,0.90
2009,02,09,20,56,0.90
2009,02,09,20,57,1.00
2009,02,09,20,58,1.10
2009,02,09,20,59,1.20
2009,02,09,21,00,1.20
2009,02,09,21,01,1.30
2009,02,09,21,02,1.30
2009,02,09,21,03,1.30
2009,02,09,21,04,1.30
2009,02,09,21,05,1.30
2009,02,09,21,06,1.30
2009,02,09,21,07,1.30
2009,02,09,21,08,1.30
2009,02,09,21,09,1.30
2009,02,09,21,10,1.30
2009,02,09,21,11,1.30
2009,02,09,21,12,1.30
2009,02,09,21,13,1.30
2009,02,09,21,14,1.30
2009,02,09,21,15,1.30
2009,02,09,21,16,1.30
2009,02,09,21,17,1.30
2009,02,09,21,18,1.30
2009,02,09,21,19,1.30
2009,02,09,21,20,1.30
2009,02,09,21,21,1.30
2009,02,09,21,22,1.30
2009,02,09,21,23,1.30
2009,02,09,21,24,1.30
2009,02,09,21,25,1.30
2009,02,09,21,26,1.30
2009,02,09,21,27,1.30
2009,02,09,21,28,1.30
2009,02,09,21,29,1.30
2009,02,09,21,30,1.30
2009,02,09,21,31,1.30
2009,02,09,21,32,1.20
2009,02,09,21,33,1.20
2009,02,09,21,34,1.20
2009,02,09,21,35,1.10
2009,02,09,21,36,1.10
2009,02,09,21,37,1.10
2009,02,09,21,38,1.10
2009,02,09,21,39,1.10
2009,02,09,21,40,1.10
2009,02,09,21,41,1.10
2009,02,09,21,42,1.10
2009,02,09,21,43,1.10
2009,02,09,21,44,1.10
2009,02,09,21,45,1.10
2009,02,09,21,46,1.20
2009,02,09,21,47,1.20
2009,02,09,21,48,1.20
2009,02,09,21,49,1.10
2009,02,09,21,50,1.10
2009,02,09,21,51,1.10
2009,02,09,21,52,1.10
2009,02,09,21,53,1.10
2009,02,09,21,54,1.10
2009,02,09,21,55,1.10
2009,02,09,21,56,1.10
2009,02,09,21,57,1.10
2009,02,09,21,58,1.10
2009,02,09,21,59,1.10
2009,02,09,22,00,1.10
2009,02,09,22,01,1.10
2009,02,09,22,02,1.10
2009,02,09,22,03,1.10
2009,02,09,22,04,1.00
2009,02,09,22,05,1.00
2009,02,09,22,06,0.90
2009,02,09,22,07,0.80
2009,02,09,22,08,0.80
2009,02,09,22,09,0.70
2009,02,09,22,10,0.60
2009,02,09,22,11,0.60
2009,02,09,22,12,0.50
2009,02,09,22,13,0.50
2009,02,09,22,14,0.50
2009,02,09,22,15,0.50
2009,02,09,22,16,0.50
2009,02,09,22,17,0.50
2009,02,09,22,18,0.60
2009,02,09,22,19,0.60
2009,02,09,22,20,0.60
2009,02,09,22,21,0.60
2009,02,09,22,22,0.60
2009,02,09,22,23,0.60
2009,02,09,22,24,0.50
2009,02,09,22,25,0.50
2009,02,09,22,26,0.40
2009,02,09,22,27,0.40
2009,02,09,22,28,0.40
2009,02,09,22,29,0.30
2009,02,09,22,30,0.30
2009,02,09,22,31,0.30
2009,02,09,22,32,0.20
2009,02,09,22,33,0.20
2009,02,09,22,34,0.20
2009,02,09,22,35,0.20
2009,02,09,22,36,0.20
2009,02,09,22,37,0.20
2009,02,09,22,38,0.20
2009,02,09,22,39,0.20
2009,02,09,22,40,0.20
2009,02,09,22,41,0.30
2009,02,09,22,42,0.30
2009,02,09,22,43,0.40
2009,02,09,22,44,0.50
2009,02,09,22,45,0.60
2009,02,09,22,46,0.60
2009,02,09,22,47,0.60
2009,02,09,22,48,0.60
2009,02,09,22,49,0.60
2009,02,09,22,50,0.60
2009,02,09,22,51,0.60
2009,02,09,22,52,0.60
2009,02,09,22,53,0.60
2009,02,09,22,54,0.60
2009,02,09,22,55,0.70
2009,02,09,22,56,0.70
2009,02,09,22,57,0.70
2009,02,09,22,58,0.70
2009,02,09,22,59,0.70
2009,02,09,23,00,0.70
2009,02,09,23,01,0.70
2009,02,09,23,02,0.70
2009,02,09,23,03,0.80
2009,02,09,23,04,0.80
2009,02,09,23,05,0.80
2009,02,09,23,06,0.80
2009,02,09,23,07,0.80
2009,02,09,23,08,0.80
2009,02,09,23,09,0.80
2009,02,09,23,10,0.80
2009,02,09,23,11,0.90
2009,02,09,23,12,0.90
2009,02,09,23,13,0.90
2009,02,09,23,14,0.90
2009,02,09,23,15,0.90
2009,02,09,23,16,0.90
2009,02,09,23,17,0.90
2009,02,09,23,18,1.00
2009,02,09,23,19,1.00
2009,02,09,23,20,1.00
2009,02,09,23,21,0.90
2009,02,09,23,22,0.90
2009,02,09,23,23,0.80
2009,02,09,23,24,0.80
2009,02,09,23,25,0.70
2009,02,09,23,26,0.70
2009,02,09,23,27,0.70
2009,02,09,23,28,0.70
2009,02,09,23,29,0.70
2009,02,09,23,30,0.60
2009,02,09,23,31,0.60
2009,02,09,23,32,0.60
2009,02,09,23,33,0.50
2009,02,09,23,34,0.50
2009,02,09,23,35,0.60
2009,02,09,23,36,0.50
2009,02,09,23,37,0.50
2009,02,09,23,38,0.50
2009,02,09,23,39,0.40
2009,02,09,23,40,0.40
2009,02,09,23,41,0.40
2009,02,09,23,42,0.40
2009,02,09,23,43,0.40
2009,02,09,23,44,0.50
2009,02,09,23,45,0.60
2009,02,09,23,46,0.70
2009,02,09,23,47,0.80
2009,02,09,23,48,0.80
2009,02,09,23,49,0.80
2009,02,09,23,50,0.90
2009,02,09,23,51,0.90
2009,02,09,23,52,0.80
2009,02,09,23,53,0.80
2009,02,09,23,54,0.80
2009,02,09,23,55,0.80
2009,02,09,23,56,0.70
2009,02,09,23,57,0.70
2009,02,09,23,58,0.60
2009,02,09,23,59,0.50
